Location: Bottom School (historical)
(37.9078°N, 89.3593°W)
Time: 21:56:19
(UTC+00:00)

Cosmos 1570 Rocket - Pass Details

Date: 04 July 2022
Orbit: 762 x 788 km, 74.1° (Epoch: 15 August)

Event Time Altitude Azimuth Distance (km) Brightness Sun altitude
Exits shadow 09:26:50 14° 254° (WSW) 2,027 5.7 -12.5°
Maximum altitude 09:29:57 23° 298° (WNW) 1,586 5.5 -12.1°
Drops below altitude 10° 09:34:05 10° 351° (N) 2,314 6.9 -11.4°
Sets 09:36:58 0° 6° (N) 3,249 8.0 -11.0°
